Weather History for KIZG - November, 2010

Change the Weather History Date:

Friday, November 5, 2010

  Actual Average Record
Temperature  
Mean Temperature 47 °F -  
Max Temperature 53 °F 47 °F 68 °F (2008)
Min Temperature 41 °F 27 °F 16 °F (2013)
Degree Days  
Heating Degree Days 18    
Moisture  
Dew Point 44 °F    
Average Humidity 97    
Maximum Humidity 100    
Minimum Humidity 82    
Precipitation  
Precipitation 0.57 in - - ()
Sea Level Pressure  
Sea Level Pressure 29.43 in    
Wind  
Wind Speed 1 mph (West)    
Max Wind Speed 8 mph    
Max Gust Speed -    
Visibility 5 miles    
Events Rain    
Averages and records for this station are not official NWS values.
T = Trace of Precipitation, MM = Missing Value Source: NWS Daily Summary

Daily Weather History Graph

Daily Weather History Graph

Search for Another Location

Airport or City:

Trip Planner

Search our weather history database for the weather conditions in past years. The results will help you decide how hot, cold, wet, or windy it might be!

Date:

Astronomy

Nov. 05, 2010 Rise Set
Actual Time 7:25 AM EDT 5:28 PM EDT
Civil Twilight 6:55 AM EDT 5:59 PM EDT
Nautical Twilight 6:20 AM EDT 6:33 PM EDT
Astronomical Twilight 5:47 AM EDT 7:06 PM EDT
Moon 6:48 AM EDT (11/5) 4:47 PM EDT (11/5)
Length of Visible Light 11h 03m
Length of Day
10h 03m
Waning Crescent, 0% of the Moon is Illuminated
Nov 5
Waning Crescent
Nov 6
New
Nov 13
First Quarter
Nov 21
Full
Nov 28
Last Quarter

Hourly Weather History & Observations

Time (EDT) Temp. Windchill Dew Point Humidity Pressure Visibility Wind Dir Wind Speed Gust Speed Precip Events Conditions
12:54 AM 41.0 °F - 41.0 °F 100% 29.52 in 10.0 mi Calm Calm - 0.02 in Rain Light Rain
1:54 AM 42.1 °F 39.2 °F 41.0 °F 96% 29.51 in 7.0 mi North 4.6 mph - 0.02 in Rain Light Rain
2:54 AM 41.0 °F - 41.0 °F 100% 29.49 in 3.0 mi Calm Calm - 0.01 in Rain Light Rain
3:04 AM 41.0 °F - 41.0 °F 100% 29.46 in 1.8 mi Calm Calm - 0.01 in Rain Light Rain
3:11 AM 41.0 °F - 41.0 °F 100% 29.46 in 1.8 mi Calm Calm - 0.01 in Rain Light Rain
3:16 AM 41.0 °F - 41.0 °F 100% 29.45 in 3.0 mi Calm Calm - 0.01 in Rain Light Rain
3:46 AM 41.0 °F - 41.0 °F 100% 29.45 in 1.8 mi Calm Calm - 0.04 in Rain Light Rain
3:54 AM 41.0 °F - 41.0 °F 100% 29.47 in 2.0 mi Calm Calm - 0.04 in Rain Light Rain
4:04 AM 42.8 °F - 42.8 °F 100% 29.44 in 3.0 mi Calm Calm - 0.01 in Rain Light Rain
4:43 AM 41.0 °F - 41.0 °F 100% 29.43 in 5.0 mi Calm Calm - 0.05 in Rain Light Rain
4:54 AM 41.0 °F - 41.0 °F 100% 29.44 in 4.0 mi Calm Calm - 0.06 in Rain Light Rain
5:07 AM 42.8 °F - 42.8 °F 100% 29.43 in 6.0 mi Calm Calm - 0.01 in Rain Light Rain
5:39 AM 42.8 °F 41.1 °F 42.8 °F 100% 29.39 in 6.0 mi NW 3.5 mph - 0.04 in Rain Light Rain
5:54 AM 42.1 °F - 42.1 °F 100% 29.41 in 4.0 mi Calm Calm - 0.05 in Rain Light Rain
6:02 AM 42.8 °F - 42.8 °F 100% 29.39 in 8.0 mi Calm Calm - 0.00 in Rain Light Rain
6:36 AM 42.8 °F - 42.8 °F 100% 29.40 in 7.0 mi Calm Calm - 0.01 in   Overcast
6:44 AM 42.8 °F - 42.8 °F 100% 29.39 in 5.0 mi Calm Calm - 0.01 in   Overcast
6:54 AM 42.1 °F - 42.1 °F 100% 29.41 in 3.0 mi Calm Calm - 0.01 in   Overcast
7:03 AM 42.8 °F - 42.8 °F 100% 29.39 in 2.5 mi Calm Calm - N/A   Overcast
7:10 AM 42.8 °F - 42.8 °F 100% 29.39 in 2.5 mi Calm Calm - 0.00 in Rain Light Rain
7:36 AM 42.8 °F - 42.8 °F 100% 29.39 in 3.0 mi Calm Calm - 0.02 in Rain Light Rain
7:54 AM 42.1 °F - 42.1 °F 100% 29.40 in 2.5 mi Calm Calm - 0.04 in Rain Light Rain
8:08 AM 42.8 °F - 42.8 °F 100% 29.39 in 4.0 mi Calm Calm - 0.01 in Rain Light Rain
8:35 AM 42.8 °F - 42.8 °F 100% 29.37 in 3.0 mi Calm Calm - 0.01 in Rain Light Rain
8:46 AM 42.8 °F - 42.8 °F 100% 29.38 in 3.0 mi Calm Calm - 0.01 in Rain Light Rain
8:54 AM 43.0 °F - 43.0 °F 100% 29.39 in 3.0 mi Calm Calm - 0.02 in   Overcast
9:01 AM 42.8 °F - 42.8 °F 100% 29.38 in 1.8 mi Calm Calm - 0.00 in Rain Light Rain
9:16 AM 42.8 °F - 42.8 °F 100% 29.39 in 2.5 mi Calm Calm - 0.01 in Rain Light Rain
9:30 AM 44.6 °F - 44.6 °F 100% 29.39 in 1.5 mi Calm Calm - 0.02 in Rain Light Rain
9:38 AM 44.6 °F - 44.6 °F 100% 29.38 in 1.2 mi Calm Calm - 0.02 in Rain Light Rain
9:54 AM 44.1 °F - 44.1 °F 100% 29.40 in 1.5 mi Calm Calm - 0.04 in Rain Light Rain
10:04 AM 44.6 °F - 44.6 °F 100% 29.39 in 1.0 mi Calm Calm - 0.03 in Rain Rain
10:11 AM 44.6 °F - 44.6 °F 100% 29.38 in 1.5 mi Calm Calm - 0.04 in Rain Light Rain
10:18 AM 44.6 °F - 44.6 °F 100% 29.37 in 3.0 mi Calm Calm - 0.05 in Rain Light Rain
10:27 AM 44.6 °F - 44.6 °F 100% 29.37 in 3.0 mi Calm Calm - 0.05 in Rain Light Rain
10:42 AM 44.6 °F - 44.6 °F 100% 29.36 in 4.0 mi Calm Calm - 0.05 in Rain Light Rain
10:54 AM 45.0 °F - 45.0 °F 100% 29.39 in 1.8 mi Calm Calm - 0.06 in Rain Light Rain
11:03 AM 44.6 °F - 44.6 °F 100% 29.37 in 1.0 mi Calm Calm - 0.01 in Rain Light Rain
11:21 AM 44.6 °F - 44.6 °F 100% 29.37 in 1.5 mi Calm Calm - 0.06 in Rain Heavy Rain
11:29 AM 46.4 °F - 44.6 °F 93% 29.37 in 1.8 mi Calm Calm - 0.07 in Rain Light Rain
11:33 AM 46.4 °F - 46.4 °F 100% 29.38 in 2.0 mi Calm Calm - 0.08 in Rain Light Rain
11:54 AM 46.0 °F - 46.0 °F 100% 29.38 in 1.8 mi Calm Calm - 0.12 in Rain Rain
12:04 PM 46.4 °F - 46.4 °F 100% 29.38 in 2.0 mi Calm Calm - 0.02 in Rain Light Rain
12:16 PM 46.4 °F - 46.4 °F 100% 29.37 in 1.5 mi Calm Calm - 0.06 in Rain Rain
12:26 PM 46.4 °F - 46.4 °F 100% 29.37 in 3.0 mi Calm Calm - 0.07 in Rain Light Rain
12:33 PM 46.4 °F - 46.4 °F 100% 29.37 in 1.8 mi Calm Calm - 0.08 in Rain Light Rain
12:41 PM 46.4 °F - 46.4 °F 100% 29.37 in 3.0 mi Calm Calm - 0.08 in Rain Light Rain
12:54 PM 46.9 °F - 46.0 °F 97% 29.37 in 10.0 mi Calm Calm - 0.08 in   Overcast
1:17 PM 46.4 °F - 46.4 °F 100% 29.35 in 7.0 mi Calm Calm - 0.00 in   Overcast
1:54 PM 48.0 °F - 46.9 °F 96% 29.36 in 9.0 mi Calm Calm - 0.00 in   Overcast
2:54 PM 48.9 °F - 48.0 °F 97% 29.39 in 10.0 mi Calm Calm - N/A   Overcast
3:42 PM 50.0 °F - 48.2 °F 94% 29.40 in 10.0 mi Calm Calm - N/A   Overcast
3:54 PM 51.1 °F - 51.1 °F 100% 29.42 in 10.0 mi Calm Calm - N/A   Overcast
4:05 PM 53.6 °F - 51.8 °F 94% 29.41 in 10.0 mi Variable 3.5 mph - N/A   Overcast
4:39 PM 51.8 °F - 50.0 °F 94% 29.43 in 10.0 mi Variable 3.5 mph - N/A   Mostly Cloudy
4:54 PM 53.1 °F - 50.0 °F 89% 29.45 in 10.0 mi Variable 5.8 mph - N/A   Mostly Cloudy
5:25 PM 51.8 °F - 48.2 °F 88% 29.47 in 10.0 mi WSW 8.1 mph - 0.00 in Rain Light Rain
5:49 PM 50.0 °F - 46.4 °F 87% 29.48 in 10.0 mi Variable 5.8 mph - 0.00 in   Scattered Clouds
5:54 PM 50.0 °F - 45.0 °F 83% 29.50 in 10.0 mi Variable 6.9 mph - 0.00 in   Partly Cloudy
6:54 PM 48.0 °F - 44.1 °F 86% 29.55 in 10.0 mi West 5.8 mph - N/A   Scattered Clouds
7:54 PM 46.0 °F 43.1 °F 41.0 °F 83% 29.60 in 10.0 mi SSW 5.8 mph - N/A   Scattered Clouds
8:54 PM 45.0 °F - 39.9 °F 82% 29.64 in 10.0 mi Calm Calm - N/A   Scattered Clouds
9:54 PM 43.0 °F 40.3 °F 37.9 °F 82% 29.69 in 10.0 mi Variable 4.6 mph - N/A   Clear
10:54 PM 43.0 °F 40.3 °F 37.9 °F 82% 29.73 in 10.0 mi Variable 4.6 mph - N/A   Clear
11:54 PM 41.0 °F 39.0 °F 37.0 °F 86% 29.76 in 10.0 mi Variable 3.5 mph - N/A   Clear